Location: Im Fang
(46.6019°N, 7.2397°E)
Time: 07:37:29
(UTC+00:00)

Cosmos 1634 Rocket - Pass Details

Date: 08 December 2019
Orbit: 960 x 992 km, 82.9° (Epoch: 21 January)

Event Time Altitude Azimuth Distance (km) Brightness Sun altitude
Rises 05:35:29 0° 200° (SSW) 3,659 7.0 -14.2°
Reaches altitude 10° 05:38:03 10° 205° (SSW) 2,711 6.3 -13.8°
Maximum altitude 05:44:08 56° 283° (WNW) 1,140 4.0 -12.8°
Drops below altitude 10° 05:50:13 10° 1° (N) 2,711 6.1 -11.8°
Sets 05:52:48 0° 6° (N) 3,659 6.9 -11.4°
